Location: Boca de Tacagua
(10.5333°N, 66.9833°W)
Time: 08:45:26
(UTC+00:00)

COSMOS 2251 DEB - Visible Passes

Search period start: 06 December 2023 00:00
Search period end: 16 December 2023 00:00
Orbit: 634 x 648 km, 74.0° (Epoch: 02 December)

Date Brightness Start Highest point End Pass type
(mag) Time Alt. Az. Time Alt. Az. Time Alt. Az.
06 Dec ? 09:04:50 54° WNW 09:05:15 56° WSW 09:09:40 10° S visible
07 Dec ? 07:51:01 15° ESE 07:51:01 15° ESE 07:52:21 10° ESE visible
07 Dec ? 09:28:35 19° WSW 09:28:35 19° WSW 09:31:21 10° SW visible
08 Dec ? 08:14:26 24° SE 08:14:26 24° SE 08:16:22 10° SSE visible
09 Dec ? 08:37:29 18° S 08:37:29 18° S 08:38:43 10° S visible
